Weather History for CYSF - December, 2012

Change the Weather History Date:

Thursday, December 6, 2012

  Actual Average Record
Temperature  
Mean Temperature -10 °F -  
Max Temperature 6 °F 3 °F 33 °F (2011)
Min Temperature -25 °F -10 °F -38 °F (2014)
Degree Days  
Heating Degree Days 74    
Moisture  
Dew Point -10 °F    
Average Humidity 73    
Maximum Humidity 85    
Minimum Humidity 61    
Precipitation  
Precipitation 0.00 in - - ()
Sea Level Pressure  
Sea Level Pressure 30.03 in    
Wind  
Wind Speed 4 mph ()    
Max Wind Speed 7 mph    
Max Gust Speed -    
Visibility 8.1 miles    
Events Snow    
Averages and records for this station are not official NWS values.
T = Trace of Precipitation, MM = Missing Value Source: Averaged Metar Reports

Daily Weather History Graph

Daily Weather History Graph

Search for Another Location

Airport or City:

Trip Planner

Search our weather history database for the weather conditions in past years. The results will help you decide how hot, cold, wet, or windy it might be!

Date:

Astronomy

Dec. 06, 2012 Rise Set
Actual Time 9:42 AM CST 4:06 PM CST
Civil Twilight 8:48 AM CST 5:00 PM CST
Nautical Twilight 7:54 AM CST 5:54 PM CST
Astronomical Twilight 7:04 AM CST 6:44 PM CST
Moon 12:19 AM CST (12/6) 1:07 PM CST (12/6)
Length of Visible Light 8h 11m
Length of Day
6h 24m
Waning Gibbous, 49% of the Moon is Illuminated
Dec 6
Waning Gibbous
Dec 13
New
Dec 19
First Quarter
Dec 28
Full
Jan 4
Last Quarter

Hourly Weather History & Observations

Time (CST) Temp. Windchill Dew Point Humidity Pressure Visibility Wind Dir Wind Speed Gust Speed Precip Events Conditions
12:00 AM 8 °F - 3 °F 70% 29.79 in 7 mi North 3.5 mph - - Snow Light Snow
12:00 AM 8.6 °F -1.3 °F 3.2 °F 79% 29.79 in 7.0 mi Variable 5.8 mph - N/A Snow Light Snow
12:15 AM 8.6 °F - 3.2 °F 79% 29.79 in 5.0 mi Variable 2.3 mph - N/A Snow Light Snow
1:00 AM 6.8 °F -2.0 °F 3.2 °F 85% 29.81 in 5.0 mi NNW 4.6 mph - N/A Snow Light Snow
1:06 AM 8.6 °F 2.0 °F 3.2 °F 79% 29.81 in 6.0 mi NW 3.5 mph - N/A Snow Light Snow
1:42 AM 6.8 °F -4.8 °F 1.4 °F 79% 29.83 in 9.0 mi NNW 6.9 mph - N/A   Mostly Cloudy
2:00 AM 6.8 °F -2.0 °F -0.4 °F 72% 29.84 in 9.0 mi NNW 4.6 mph - N/A   Partly Cloudy
3:00 AM 6.8 °F -2.0 °F -0.4 °F 72% 29.86 in 9.0 mi WNW 4.6 mph - N/A   Overcast
4:00 AM 6.8 °F -3.5 °F 1.4 °F 79% 29.88 in 9.0 mi WNW 5.8 mph - N/A   Overcast
4:22 AM 6.8 °F -2.0 °F 1.4 °F 79% 29.89 in 9.0 mi North 4.6 mph - N/A Snow Light Snow
5:00 AM 6.8 °F -3.5 °F -0.4 °F 72% 29.91 in 9.0 mi NW 5.8 mph - N/A Snow Light Snow
6:00 AM 6 °F - -0 °F 65% 29.92 in 10 mi NNW 6.9 mph - - Snow Light Snow
6:00 AM 6.8 °F -4.8 °F -0.4 °F 72% 29.92 in 9.0 mi NNW 6.9 mph - N/A Snow Light Snow
7:00 AM 5.0 °F -5.6 °F -0.4 °F 78% 29.95 in 9.0 mi NW 5.8 mph - N/A Snow Light Snow
8:00 AM 5.0 °F -4.1 °F -2.2 °F 72% 29.96 in 9.0 mi NNW 4.6 mph - N/A Snow Light Snow
9:00 AM 5.0 °F -2.1 °F -2.2 °F 72% 29.98 in 9.0 mi NNW 3.5 mph - N/A Snow Light Snow
9:10 AM 3.2 °F -7.8 °F -2.2 °F 78% 29.98 in 5.0 mi NW 5.8 mph - N/A Snow Light Snow
9:20 AM 3.2 °F -7.8 °F -4.0 °F 72% 29.99 in 9.0 mi NW 5.8 mph - N/A Snow Light Snow
10:00 AM 3.2 °F -9.1 °F -4.0 °F 72% 30.00 in 9.0 mi NW 6.9 mph - N/A Snow Light Snow
10:03 AM 3.2 °F -7.8 °F -4.0 °F 72% 30.00 in 9.0 mi NW 5.8 mph - N/A   Overcast
10:06 AM 3.2 °F -6.2 °F -4.0 °F 72% 30.00 in 9.0 mi NNW 4.6 mph - N/A Snow Light Snow
11:00 AM 1.4 °F -8.3 °F -5.8 °F 72% 30.02 in 9.0 mi NNW 4.6 mph - N/A Snow Light Snow
11:23 AM 1.4 °F -9.9 °F -5.8 °F 72% 30.03 in 9.0 mi NNW 5.8 mph - N/A   Overcast
12:00 PM 0 °F - -7 °F 61% 30.04 in 10 mi North 4.6 mph - -  
12:00 PM -0.4 °F -10.4 °F -5.8 °F 78% 30.04 in 9.0 mi North 4.6 mph - N/A   Mostly Cloudy
1:00 PM -2.2 °F -15.6 °F -11.2 °F 66% 30.06 in 9.0 mi North 6.9 mph - N/A   Clear
2:00 PM -2.2 °F -14.2 °F -11.2 °F 66% 30.08 in 9.0 mi North 5.8 mph - N/A   Clear
3:00 PM -5.8 °F -18.4 °F -13.0 °F 71% 30.10 in 9.0 mi North 5.8 mph - N/A   Clear
3:46 PM -7.6 °F -16.5 °F -14.8 °F 71% 30.13 in 9.0 mi North 3.5 mph - N/A Snow Light Snow
4:00 PM -7.6 °F -16.5 °F -14.8 °F 71% 30.13 in 9.0 mi NNW 3.5 mph - N/A Snow Light Snow
4:16 PM -7.6 °F -18.8 °F -14.8 °F 71% 30.14 in 9.0 mi NW 4.6 mph - N/A   Clear
5:00 PM -9.4 °F -20.9 °F -14.8 °F 77% 30.15 in 9.0 mi NNW 4.6 mph - N/A   Clear
6:00 PM -10 °F - -16 °F 64% 30.16 in 10 mi NNW 2.3 mph - -  
6:00 PM -9.4 °F - -16.6 °F 71% 30.16 in 9.0 mi NNW 2.3 mph - N/A   Clear
7:00 PM -11.2 °F - -16.6 °F 77% 30.17 in 9.0 mi North 2.3 mph - N/A   Clear
7:38 PM -16.6 °F - -22.0 °F 76% 30.18 in 2.5 mi Calm Calm - N/A   Haze
7:46 PM -16.6 °F - -22.0 °F 76% 30.18 in 3.0 mi Calm Calm - N/A   Haze
8:00 PM -18.4 °F - -23.8 °F 76% 30.19 in 3.0 mi Calm Calm - N/A   Haze
8:03 PM -18.4 °F - -25.6 °F 70% 30.19 in 6.0 mi Calm Calm - N/A   Haze
9:00 PM -23.8 °F - -29.2 °F 76% 30.19 in 9.0 mi Variable 2.3 mph - N/A   Clear
9:34 PM -22.0 °F - -29.2 °F 69% 30.19 in 9.0 mi East 2.3 mph - N/A   Partly Cloudy
10:00 PM -22.0 °F - -27.4 °F 76% 30.20 in 9.0 mi Calm Calm - N/A   Partly Cloudy
10:38 PM -25.6 °F - -31.0 °F 76% 30.20 in 5.0 mi South 2.3 mph - N/A   Haze
10:47 PM -23.8 °F - -31.0 °F 69% 30.20 in 8.0 mi SSE 2.3 mph - N/A   Scattered Clouds
11:00 PM -22.0 °F - -29.2 °F 69% 30.20 in 9.0 mi ESE 2.3 mph - N/A   Mostly Cloudy